Location: D�derode
(51.8092°N, 10.1065°E)
Time: 14:56:02
(UTC+00:00)

Meteor 1-20 Rocket - Visible Passes

Search period start: 20 April 2021 00:00
Search period end: 30 April 2021 00:00
Orbit: 820 x 891 km, 81.2° (Epoch: 20 April)

Date Brightness Start Highest point End Pass type
(mag) Time Alt. Az. Time Alt. Az. Time Alt. Az.
20 Apr 6.2 20:19:50 10° NNE 20:23:32 17° NE 20:26:32 12° E visible
20 Apr 4.2 22:01:48 10° N 22:07:39 77° ENE 22:08:39 61° SE visible
20 Apr 5.9 23:45:54 10° NW 23:50:01 20° W 23:50:46 20° W visible
21 Apr 6.2 20:09:23 10° NNE 20:12:56 16° NE 20:16:13 11° E visible
21 Apr 4.2 21:51:16 10° N 21:57:07 74° ENE 21:58:20 55° SE visible
21 Apr 5.9 23:35:17 10° NW 23:39:31 21° W 23:40:27 20° W visible
22 Apr 6.2 19:58:56 10° NNE 20:02:21 16° NE 20:05:43 10° E visible
22 Apr 4.3 21:40:44 10° N 21:46:34 71° ENE 21:48:01 50° SE visible
22 Apr 5.8 23:24:41 10° NW 23:29:01 22° W 23:30:08 21° W visible
23 Apr 6.2 19:48:30 10° NNE 19:51:46 15° NE 19:54:58 10° E visible
23 Apr 4.3 21:30:13 10° N 21:36:01 68° ENE 21:37:43 45° SE visible
23 Apr 5.8 23:14:06 10° NW 23:18:31 23° W 23:19:50 21° WSW visible
24 Apr 6.3 19:38:04 10° NNE 19:41:10 14° NE 19:44:12 10° E visible
24 Apr 4.3 21:19:42 10° N 21:25:29 65° ENE 21:27:26 41° SE visible
24 Apr 5.8 23:03:30 10° NNW 23:08:01 24° W 23:09:33 22° WSW visible
25 Apr 6.3 19:27:40 10° NNE 19:30:34 14° NE 19:33:26 10° E visible
25 Apr 4.4 21:09:11 10° N 21:14:56 62° ENE 21:17:09 36° SE visible
25 Apr 5.7 22:52:54 10° NNW 22:57:31 25° W 22:59:16 22° WSW visible
26 Apr 6.3 19:17:15 10° NNE 19:19:58 13° NE 19:22:39 10° ENE visible
26 Apr 4.4 20:58:39 10° N 21:04:23 59° ENE 21:06:53 33° SE visible
26 Apr 5.7 22:42:20 10° NNW 22:47:00 26° W 22:49:01 21° WSW visible
27 Apr 4.5 20:48:08 10° N 20:53:50 57° ENE 20:56:38 29° SE visible
27 Apr 5.7 22:31:45 10° NNW 22:36:31 27° W 22:38:45 21° WSW visible
28 Apr 4.5 20:37:36 10° N 20:43:17 54° ENE 20:46:24 25° SE visible
28 Apr 5.7 22:21:10 10° NNW 22:26:00 29° W 22:28:32 20° SW visible
29 Apr 4.6 20:27:06 10° N 20:32:44 52° ENE 20:36:11 22° SE visible
29 Apr 5.6 22:10:36 10° NNW 22:15:29 30° W 22:18:19 20° SW visible
